星链-5325 (STARLINK-5325 )

导读

STARLINK-5325是美国太空探索技术公司星链星座的一员,于2023年1月19日发射入轨,属于星链组网的第二批卫星,承担低轨互联网卫星通信服务任务。该卫星运行在近地轨道,依托星链大规模星座组网,可提供全球覆盖的宽带互联网接入,为偏远地区通信、军事通信等场景提供支持,是星链星座构建全球低轨通信网络的组成部分。

Basic Information
目录编号:
55292
目录名称:
STARLINK-5325
国际标识:
2023-010Z
轨道中心:
EARTH
卫星名称:
星链-5325
卫星全名:
星链-5325 (STARLINK-5325 )
卫星状态:
在轨 (已飞行1243 天)
发射日期:
2023-01-19 UTC
国别 :
美国 (US)
星等 :
--
Orbit Information
数据来源 国际轨道数据 AOE轨道数据
星历时间 2026-06-14T23:33:41+0800
15小时前
查看轨道信息
2026-06-13T11:00:00+0800
2天前
查看轨道信息
半长轴 6950.188km 6950.174km
偏心率 0.0003297 0.0003661
轨道倾角 69.999° 70.001°
近地点辐角 270.647° 273.206°
升交点赤经 139.947° 143.789°
平近点角 89.431° 152.071°
近地点 569.759km 569.492km
远地点 574.343km 574.582km
周期 96.107分钟 96.107分钟
每日圈数 14.983316 14.983364
Detailed Information
固有亮度:
5
最大亮度:
2.5
卫星平台:
Starlink v1.5
覆盖范围:
全球
运营商:
太空探索技术公司
运营商所在国:
美国
制造商(研发单位):
太空探索技术公司
制造商所在国:
美国
使用方式:
暂无
Satellite Introduction
星链(Starlink)计划是由太空探索技术公司(SpaceX)提出的一个巨型低轨卫星互联网星座项目,计划在2019年至2024年间在太空搭建由约1.2万颗卫星组成的“星链”网络,其中1584颗将部署在地球上空550千米处的近地轨道,并从2020年开始工作。该卫星仍在工作。
2D Orbit Map
3D Orbit Map
Orbit Altitude Analysis Chart
Orbit Inclination Analysis Chart
Orbit Comprehensive Analysis Chart
View Comprehensive Chart